{"data":{"norad_id":66398,"epoch":"2026-09-20T20:48:07.108416Z","epoch_age_seconds":61451,"freshness":"FRESH","line1":"1 66398U 25257U   26263.86674894  .00018502  00000+0  55730-3 0  9992","line2":"2 66398  53.1604  26.3573 0001119  88.6056 271.5075 15.34404579 49679","mean_motion":15.34404579,"eccentricity":0.0001119,"inclination_deg":53.1604,"raan_deg":26.3573,"arg_perigee_deg":88.6056,"mean_anomaly_deg":271.5075,"bstar":0.0005573,"rev_number":4967,"period_min":93.847478019029,"perigee_km":461.92414198802,"apogee_km":463.45511898792,"semimajor_km":6840.826630488,"source":"CELESTRAK","updated_at":"2026-09-21T09:00:35.888754Z"}}